Regional Weather Roundup
Issued by NWS

Home | Current Version | Previous Version | Text Only | Print | Product List | Glossary Off
Versions: 1 2 3 4 5 6 7 8 9 10 11 12 13 14 15 16 17 18 19 20 21 22 23 24 25 26 27 28 29 30 31 32 33 34 35 36 37 38 39 40 41 42 43 44 45 46 47 48 49 50

000
ASUS43 KDMX 291803
RWRIA

WEATHER ROUNDUP FOR IOWA
NATIONAL WEATHER SERVICE DES MOINES IA
100 PM CDT FRI APR 29 2016

NOTE: "FAIR" INDICATES FEW OR NO CLOUDS BELOW 12,000 FEET WITH NO
SIGNIFICANT WEATHER AND/OR OBSTRUCTIONS TO VISIBILITY.

* - THESE STATIONS ARE NOT NWS STATIONS...THUS NOT UNDER NWS
QUALITY CONTROL.  THEY ALSO DO NOT REPORT WEATHER SUCH
AS PRECIPITATION OR FOG.

IAZ001>003-012>014-020>022-031>034-043>046-291900-
   NORTHWEST IOWA

CITY           SKY/WX    TMP DP  RH WIND       PRES   REMARKS
CARROLL *      CLOUDY    46  43  87 E12       30.08F
CHEROKEE *     CLOUDY    44  41  89 E14       30.12F
DENISON *      CLOUDY    45  41  87 E10       30.07F
LE MARS *      CLOUDY    43  39  87 E8        30.13F
ORANGE CITY *  CLOUDY    45  39  81 E8        30.12F
SHELDON *      CLOUDY    45  39  81 E14G20    30.12F
SIOUX CITY     CLOUDY    47  39  74 E8        30.11F
6HR MIN TEMP:  44; 6HR MAX TEMP:  47;

SPENCER        CLOUDY    45  37  73 E14       30.13F
6HR MIN TEMP:  40; 6HR MAX TEMP:  45;

STORM LAKE *   CLOUDY    43  39  87 E14       30.11F
$$

IAZ055>058-069>071-079>083-090>094-291900-
   SOUTHWEST IOWA

CITY           SKY/WX    TMP DP  RH WIND       PRES   REMARKS
ATLANTIC *     CLOUDY    46  43  87 E9G15     30.08S
AUDUBON *      PTSUNNY   46  43  87 NE10      30.09S
CLARINDA *       N/A    N/A N/A N/A MISG        N/A
COUNCIL BLFS * CLOUDY    46  41  81 E12       30.08S
CRESTON *      CLOUDY    48  43  81 E13       30.09R
HARLAN  *      CLOUDY    46  41  81 NE14      30.11S
LAMONI         CLOUDY    50  44  80 E9        30.06F
6HR MIN TEMP:  45; 6HR MAX TEMP:  50;

RED OAK *      CLOUDY    48  41  76 NE10      30.08R
SHENANDOAH *   CLOUDY    50  45  81 E9        30.08S
$$

IAZ047>049-059>061-072>074-084-291900-
   CENTRAL IOWA

CITY           SKY/WX    TMP DP  RH WIND       PRES   REMARKS
AMES           CLOUDY    48  41  76 NE9       30.11F
6HR MIN TEMP:  44; 6HR MAX TEMP:  48;

ANKENY *       CLOUDY    50  45  81 E10G16    30.08F
BOONE *        CLOUDY    46  41  81 E10       30.10F
CHARITON *     CLOUDY    48  45  87 NE10      30.08S
DES MOINES     CLOUDY    50  41  71 NE9       30.08F
6HR MIN TEMP:  46; 6HR MAX TEMP:  51;

GRINNELL*      CLOUDY    48  41  76 NE10      30.10F
KNOXVILLE *    CLOUDY    50  41  71 E8        30.08S
MARSHALLTOWN   CLOUDY    47  39  74 E7        30.11F
6HR MIN TEMP:  43; 6HR MAX TEMP:  47;

NEWTON *       CLOUDY    48  45  87 NE10      30.08F
PELLA *        CLOUDY    50  42  72 E6        30.11R
$$

IAZ004>006-015-016-023>025-035-036-291900-
   NORTH CENTRAL IOWA

CITY           SKY/WX    TMP DP  RH WIND       PRES   REMARKS
ALGONA *       CLOUDY    46  39  76 NE14      30.13F
CLARION *      CLOUDY    45  41  87 E14       30.13S
ESTHERVILLE    CLOUDY    46  39  76 NE14      30.13F
6HR MIN TEMP:  38; 6HR MAX TEMP:  47;

FORT DODGE *   CLOUDY    45  37  76 NE12      30.13S
MASON CITY     CLOUDY    45  39  79 E15       30.14F
6HR MIN TEMP:  39; 6HR MAX TEMP:  45;

FOREST CITY *  CLOUDY    45  37  76 E12G17    30.13F
WEBSTER CITY * CLOUDY    46  39  76 E10       30.10F
IOWA FALLS *   CLOUDY    46  39  76 E10       30.13F
$$

IAZ007>011-017>019-026>030-037>042-050>054-066-291900-
   NORTHEAST IOWA

CITY           SKY/WX    TMP DP  RH WIND       PRES   REMARKS
CEDAR RAPIDS   CLOUDY    47  42  83 E7        30.10F
6HR MIN TEMP:  43; 6HR MAX TEMP:  47;

CHARLES CITY * CLOUDY    46  41  81 NE10      30.13F
CLINTON *      CLOUDY    48  40  73 SE5       30.12F
DECORAH *      CLOUDY    46  37  71 N9        30.12S
DUBUQUE        CLOUDY    46  38  73 NE8       30.11S
6HR MIN TEMP:  40; 6HR MAX TEMP:  47;

MONTICELLO *   CLOUDY    48  41  76 NE6       30.10F
OELWEIN *      CLOUDY    46  39  76 NE10      30.12S
WATERLOO       CLOUDY    48  37  65 NE9       30.11S
6HR MIN TEMP:  42; 6HR MAX TEMP:  48;

$$

IAZ064-065-067-068-078-291900-
   EAST CENTRAL IOWA

CITY           SKY/WX    TMP DP  RH WIND       PRES   REMARKS
DAVENPORT      CLOUDY    48  40  73 E5        30.12F
6HR MIN TEMP:  43; 6HR MAX TEMP:  48;

IOWA CITY      CLOUDY    48  41  76 E8        30.12F
6HR MIN TEMP:  45; 6HR MAX TEMP:  48;

MT. PLEASANT * CLOUDY    52  45  76 NE9       30.10F
MUSCATINE *    CLOUDY    50  41  71 E6G13     30.10F
QUAD CITIES    CLOUDY    52  41  66 MISG      30.10F
6HR MIN TEMP:  45; 6HR MAX TEMP:  52;

$$

IAZ062-063-075>077-085>089-095>099-291900-
   SOUTHEAST IOWA

CITY           SKY/WX    TMP DP  RH WIND       PRES   REMARKS
BURLINGTON     CLOUDY    50  44  80 NE8       30.09F
6HR MIN TEMP:  47; 6HR MAX TEMP:  50;

FAIRFIELD *    CLOUDY    50  43  76 NE10G16   30.09F
FORT MADISON * CLOUDY    50  45  81 E7        30.09S
KEOKUK *       CLOUDY    52  45  76 NE8       30.08S
OSKALOOSA *    CLOUDY    48  41  76 E5        30.10R
OTTUMWA        CLOUDY    48  42  80 E7        30.09S
6HR MIN TEMP:  46; 6HR MAX TEMP:  49;

WASHINGTON *   CLOUDY    50  45  81 NE12      30.10F
$$

ABBREVIATIONS USED IN REMARKS
   TC - TEMPERATURES IN CELSIUS
  WCI - WIND CHILL INDEX
   HX - HEAT INDEX
  VSB - VISIBILITY
$$




USA.gov is the U.S. government's official web portal to all federal, state and local government web resources and services.